Tracking 35237 objects as of 6-Sep-2026
HD Live streaming from Space Station
objects crossing your sky now

OPS 7807


OPS 7807 is no longer on orbit


NORAD ID: 4078
Int'l Code: 1969-074A
Launch date: August 23, 1969
Source: United States (US)
Launch site: AIR FORCE WESTERN TEST RANGE (AFWTR)
Decay date: 1969-09-07
Your satellite tracking list
Your tracking list is empty




NASA's NSSDC Master Catalog

Two Line Element Set (TLE):
1 04078U 69074  A 69249.52088707  .01044992 +00000-0 +00000-0 0  9991
2 04078 107.9818 296.7138 0192939 116.8383 245.2596 16.05395046002233
Source of the keplerian elements: AFSPC